SAUDICOMSAT 7

Last updated on Mon Sep 07 2026 00:03:16 GMT+0000 (Coordinated Universal Time)

1 31119U 07012C 26249.46231107 .00000307 00000+0 64372-4 0 9997 2 31119 98.3878 225.2989 0054522 302.6615 56.9335 14.66192989 34348
UTC large
Height (km)
Speed (km/s)
/
Latitude / Longitude
Inclination (degrees)
Orbital Period (minutes)
Azimuth
Elevation
Range (km)
Doppler Factor

Next 0 passes for location: London (51.5072 / 0.1276)

No passes found over London.
SAUDICOMSAT 7